�N����,����,�~����,�C��,���x,�C��,����,���ϕ���,�ő�u�ԕ���,�ő厞����,���˗�,�I�_���x,�n�����x,�ő啗���N��,DTYPE
"19/05/27","00:10",0.0,19.7,78.0,1010.9,297.6,1.1,1.9,318.1,0.00,15.8,21.0,"00:01:36",1
"19/05/27","00:20",0.0,19.6,78.9,1011.2,293.4,1.0,1.6,332.2,0.00,15.9,21.1,"00:16:24",1
"19/05/27","00:30",0.0,19.6,79.5,1010.7,293.5,1.0,1.8,319.5,0.00,16.0,21.1,"00:29:20",1
"19/05/27","00:40",0.0,19.6,79.2,1010.9,295.0,1.0,1.7,312.6,0.00,15.9,20.7,"00:36:24",1
"19/05/27","00:50",0.0,19.5,79.3,1010.7,295.7,1.0,1.4,318.1,0.00,15.9,20.7,"00:41:52",1
"19/05/27","01:00",0.0,19.3,79.2,1010.7,298.6,1.0,1.8,310.1,0.00,15.6,20.8,"00:55:04",1
"19/05/27","01:10",0.0,19.2,79.5,1010.4,292.0,1.0,2.1,320.1,0.00,15.6,20.6,"01:08:48",1
"19/05/27","01:20",0.0,19.1,80.0,1010.4,296.8,1.0,1.8,309.7,0.00,15.6,20.6,"01:15:36",1
"19/05/27","01:30",0.0,19.0,80.2,1010.7,290.9,0.8,1.2,315.7,0.00,15.6,20.5,"01:20:16",1
"19/05/27","01:40",0.0,18.9,81.3,1010.4,299.2,1.0,1.3,326.9,0.00,15.7,20.4,"01:32:16",1
"19/05/27","01:50",0.0,18.8,81.5,1010.4,281.5,1.0,1.4,302.4,0.00,15.6,20.5,"01:44:16",1
"19/05/27","02:00",0.0,18.8,81.6,1010.4,292.4,0.8,1.4,319.3,0.00,15.6,20.3,"01:59:44",1
"19/05/27","02:10",0.0,18.7,82.3,1010.4,325.5,1.2,1.7,322.0,0.00,15.7,20.3,"02:01:44",1
"19/05/27","02:20",0.0,18.3,83.4,1010.2,294.5,1.0,1.4,315.0,0.00,15.5,20.1,"02:12:08",1
"19/05/27","02:30",0.0,18.4,84.2,1010.4,288.4,1.0,1.7,310.3,0.00,15.7,20.1,"02:23:20",1
"19/05/27","02:40",0.0,18.4,83.6,1010.7,286.3,1.0,1.2,296.8,0.00,15.6,20.1,"02:30:16",1
"19/05/27","02:50",0.0,18.3,83.2,1010.4,292.5,1.0,1.6,318.5,0.00,15.4,20.1,"02:49:04",1
"19/05/27","03:00",0.0,18.2,83.0,1010.2,291.1,1.0,1.7,323.0,0.00,15.3,20.1,"02:54:56",1
"19/05/27","03:10",0.0,18.1,82.6,1010.4,291.8,1.1,1.7,307.7,0.00,15.1,20.0,"03:09:44",1
"19/05/27","03:20",0.0,18.0,83.1,1010.4,288.2,1.0,1.3,302.2,0.00,15.1,20.0,"03:11:12",1
"19/05/27","03:30",0.0,18.0,83.1,1010.2,293.2,1.2,1.9,324.9,0.00,15.1,19.6,"03:22:16",1
"19/05/27","03:40",0.0,18.0,82.7,1010.4,282.0,1.1,1.4,307.4,0.00,15.1,19.8,"03:30:08",1
"19/05/27","03:50",0.0,17.8,82.7,1010.0,290.8,1.0,1.6,321.8,0.00,14.9,19.7,"03:48:08",1
"19/05/27","04:00",0.0,17.6,83.0,1010.4,291.4,1.0,1.3,319.8,0.00,14.7,19.6,"03:50:08",1
"19/05/27","04:10",0.0,17.6,83.1,1010.4,299.4,1.1,1.7,311.4,0.00,14.7,19.7,"04:09:54",1
"19/05/27","04:20",0.0,17.5,84.1,1010.7,304.4,1.2,1.4,303.3,0.00,14.8,19.7,"04:10:56",1
"19/05/27","04:30",0.0,17.3,84.6,1010.4,290.8,1.0,1.3,320.3,0.00,14.7,19.6,"04:20:24",1
"19/05/27","04:40",0.0,17.3,84.4,1010.7,282.4,1.1,1.6,301.2,0.00,14.7,19.4,"04:30:16",1
"19/05/27","04:50",0.0,17.3,84.2,1010.7,287.7,1.0,1.3,297.4,0.00,14.6,19.3,"04:45:36",1
"19/05/27","05:00",0.0,17.3,84.1,1010.7,285.8,1.0,1.3,302.2,0.00,14.6,19.4,"04:56:48",1
"19/05/27","05:10",0.0,17.3,83.6,1010.9,292.2,1.1,1.8,314.1,0.00,14.5,19.3,"05:09:20",1
"19/05/27","05:20",0.0,17.4,83.9,1010.7,291.5,1.1,1.8,314.9,0.00,14.7,19.3,"05:17:12",1
"19/05/27","05:30",0.0,17.3,84.1,1010.4,295.1,0.8,1.4,306.3,0.00,14.6,19.5,"05:21:36",1
"19/05/27","05:40",0.0,17.3,84.3,1010.7,299.9,1.1,1.4,321.8,0.00,14.7,19.1,"05:30:08",1
"19/05/27","05:50",0.0,17.5,84.7,1010.9,313.7,1.2,1.6,325.7,0.00,14.9,19.4,"05:43:12",1
"19/05/27","06:00",0.0,17.4,85.0,1010.9,317.9,1.1,1.4,309.4,0.00,14.9,19.1,"05:50:24",1
"19/05/27","06:10",0.0,17.4,85.1,1010.7,297.1,1.0,1.4,293.5,0.01,14.9,19.2,"06:07:20",1
"19/05/27","06:20",0.0,17.7,84.9,1010.7,280.9,0.7,0.9,304.8,0.02,15.2,19.2,"06:10:56",1
"19/05/27","06:30",0.0,18.0,84.2,1010.4,297.1,1.0,1.3,316.0,0.02,15.3,19.2,"06:29:52",1
"19/05/27","06:40",0.0,18.3,84.5,1010.9,325.8,1.1,1.4,327.6,0.03,15.7,19.2,"06:30:40",1
"19/05/27","06:50",0.0,18.8,84.1,1010.9,315.7,1.0,1.2,326.5,0.05,16.1,19.4,"06:43:28",1
"19/05/27","07:00",0.0,19.3,82.8,1010.7,313.0,1.0,1.6,327.4,0.06,16.3,19.4,"06:56:40",1
"19/05/27","07:10",0.0,19.6,81.1,1010.9,297.3,0.6,0.9,315.0,0.05,16.3,19.4,"07:01:36",1
"19/05/27","07:20",0.0,20.3,79.0,1011.2,282.0,0.5,0.9,293.2,0.08,16.6,19.5,"07:13:36",1
"19/05/27","07:30",0.0,20.8,77.8,1010.7,289.3,0.6,1.0,317.4,0.11,16.8,19.6,"07:26:16",1
"19/05/27","07:40",0.0,21.5,74.1,1010.9,319.4,0.6,1.3,328.4,0.16,16.7,19.7,"07:38:24",1
"19/05/27","07:50",0.0,22.0,72.9,1010.7,332.4,0.3,1.2,341.2,0.18,17.0,19.9,"07:40:40",1
"19/05/27","08:00",0.0,22.5,73.1,1010.4,321.4,0.7,1.7,333.9,0.20,17.5,20.0,"07:54:48",1
"19/05/27","08:10",0.0,22.9,71.1,1010.0,324.3,0.5,1.4,304.1,0.23,17.4,20.3,"08:08:56",1
"19/05/27","08:20",0.0,22.9,70.9,1009.7,250.3,0.5,1.3,213.1,0.22,17.4,20.3,"08:17:52",1
"19/05/27","08:30",0.0,23.8,69.0,1010.0,259.6,0.5,1.6,227.6,0.26,17.8,20.6,"08:24:08",1
"19/05/27","08:40",0.0,24.0,67.9,1009.5,180.1,0.7,1.7,211.3,0.31,17.7,20.6,"08:36:00",1
"19/05/27","08:50",0.0,24.5,66.4,1009.3,172.6,0.7,1.8,138.0,0.33,17.9,20.9,"08:42:08",1
"19/05/27","09:00",0.0,25.2,64.3,1009.3,137.8,0.8,2.8,129.6,0.32,18.0,21.1,"08:51:12",1
"19/05/27","09:10",0.0,24.9,62.8,1009.0,150.6,1.2,2.6,148.9,0.33,17.4,21.3,"09:04:48",1
"19/05/27","09:20",0.0,25.1,63.4,1008.8,160.7,1.3,2.4,157.9,0.31,17.7,21.4,"09:15:52",1
"19/05/27","09:30",0.0,25.3,62.3,1009.0,155.4,0.8,2.0,155.4,0.31,17.6,21.5,"09:28:40",1
"19/05/27","09:40",0.0,25.8,58.9,1009.0,86.5,0.6,3.1,94.1,0.33,17.2,21.7,"09:32:08",1
"19/05/27","09:50",0.0,25.8,60.5,1009.0,162.7,1.0,2.6,128.5,0.29,17.6,21.8,"09:46:32",1
"19/05/27","10:00",0.0,26.0,58.8,1009.5,186.0,1.3,3.5,193.2,0.32,17.4,22.2,"09:58:32",1
"19/05/27","10:10",0.0,26.1,58.3,1009.5,159.7,0.8,2.7,150.1,0.32,17.3,22.2,"10:04:16",1
"19/05/27","10:20",0.0,26.3,57.1,1009.3,156.0,1.1,2.7,144.0,0.31,17.2,22.2,"10:15:52",1
"19/05/27","10:30",0.0,27.3,55.0,1009.5,165.2,1.2,2.2,138.4,0.51,17.5,22.6,"10:26:08",1
"19/05/27","10:40",0.0,28.0,53.6,1009.7,169.6,1.0,2.7,121.9,0.54,17.8,23.0,"10:39:52",1
"19/05/27","10:50",0.0,28.7,46.1,1009.7,112.8,1.5,3.3,172.3,0.52,16.0,23.3,"10:44:40",1
"19/05/27","11:00",0.0,28.8,44.1,1009.7,348.1,1.3,3.2,188.6,0.52,15.4,23.5,"10:50:08",1
"19/05/27","11:10",0.0,29.5,34.3,1009.5,244.5,1.3,4.1,336.6,0.56,12.2,23.8,"11:03:12",1
"19/05/27","11:20",0.0,29.0,33.0,1009.3,171.6,2.6,4.4,153.9,0.45,11.2,24.0,"11:13:12",1
"19/05/27","11:30",0.0,29.7,32.9,1009.0,199.4,1.7,3.5,229.8,0.55,11.7,24.4,"11:21:52",1
"19/05/27","11:40",0.0,29.4,29.0,1008.8,173.1,2.1,4.0,187.1,0.51,9.6,24.2,"11:35:04",1
"19/05/27","11:50",0.0,30.6,27.9,1008.6,164.9,2.5,6.4,151.4,0.68,10.0,24.8,"11:40:48",1
"19/05/27","12:00",0.0,30.8,28.3,1008.6,180.0,2.7,5.5,191.0,0.63,10.4,24.9,"11:56:32",1
"19/05/27","12:10",0.0,30.8,25.8,1008.8,184.8,3.0,5.5,215.2,0.60,9.0,25.2,"12:02:56",1
"19/05/27","12:20",0.0,31.2,25.8,1008.3,182.1,3.2,5.2,158.6,0.60,9.4,25.4,"12:13:28",1
"19/05/27","12:30",0.0,31.4,23.5,1007.8,181.8,2.5,4.7,182.9,0.62,8.1,25.7,"12:25:12",1
"19/05/27","12:40",0.0,31.2,25.5,1008.1,203.0,2.1,5.0,155.6,0.63,9.2,26.1,"12:34:24",1
"19/05/27","12:50",0.0,30.7,24.3,1008.1,185.8,2.7,4.9,218.8,0.52,8.1,26.2,"12:42:32",1
"19/05/27","13:00",0.0,31.1,23.6,1008.1,189.1,2.2,4.8,194.0,0.50,8.0,26.3,"12:53:20",1
"19/05/27","13:10",0.0,31.3,23.6,1007.6,184.1,1.6,4.4,220.0,0.62,8.1,26.0,"13:00:48",1
"19/05/27","13:20",0.0,31.4,24.7,1007.6,195.7,1.2,3.7,199.2,0.62,8.9,26.2,"13:13:36",1
"19/05/27","13:30",0.0,31.4,25.7,1007.6,166.8,2.2,4.8,181.5,0.63,9.5,26.2,"13:28:24",1
"19/05/27","13:40",0.0,31.1,28.9,1007.4,143.3,2.0,4.9,138.5,0.44,11.0,26.0,"13:30:48",1
"19/05/27","13:50",0.0,31.9,27.3,1006.9,181.0,2.6,5.4,212.5,0.49,10.8,26.2,"13:48:00",1
"19/05/27","14:00",0.0,31.9,25.3,1007.4,208.3,2.5,4.8,208.2,0.64,9.7,26.2,"13:51:28",1
"19/05/27","14:10",0.0,31.3,27.3,1007.1,237.3,2.2,4.3,226.5,0.47,10.3,26.3,"14:03:36",1
"19/05/27","14:20",0.0,29.8,29.5,1006.9,243.2,2.5,4.7,218.2,0.27,10.2,26.1,"14:16:00",1
"19/05/27","14:30",0.0,29.4,30.9,1006.7,242.9,2.7,5.4,236.8,0.31,10.5,26.3,"14:29:44",1
"19/05/27","14:40",0.0,29.2,31.0,1006.2,250.3,2.6,5.5,225.4,0.30,10.4,26.1,"14:30:40",1
"19/05/27","14:50",0.0,28.8,31.9,1005.7,266.0,2.2,7.3,218.7,0.17,10.5,25.8,"14:41:52",1
"19/05/27","15:00",0.0,28.6,29.6,1005.7,288.0,1.3,2.6,338.9,0.17,9.2,25.7,"14:56:16",1
"19/05/27","15:10",0.0,28.9,30.5,1005.5,254.0,1.3,4.3,213.3,0.21,9.9,25.8,"15:07:12",1
"19/05/27","15:20",0.0,28.4,30.0,1005.2,263.1,1.7,4.8,224.1,0.19,9.2,25.7,"15:14:16",1
"19/05/27","15:30",0.0,27.9,30.6,1005.2,262.2,1.5,5.6,232.1,0.14,9.1,25.7,"15:25:36",1
"19/05/27","15:40",0.0,27.9,30.6,1004.8,257.7,1.7,4.8,253.2,0.13,9.1,25.5,"15:31:12",1
"19/05/27","15:50",0.0,27.5,30.5,1004.8,249.3,2.1,4.3,323.3,0.11,8.7,25.3,"15:45:12",1
"19/05/27","16:00",0.0,27.1,31.6,1004.5,280.6,1.1,2.8,223.8,0.10,8.9,25.4,"15:59:06",1
"19/05/27","16:10",0.0,27.4,31.2,1004.3,294.7,1.5,4.2,342.8,0.08,8.9,25.3,"16:04:56",1
"19/05/27","16:20",0.0,27.3,29.3,1004.5,286.2,1.3,3.5,329.4,0.09,7.9,25.0,"16:13:52",1
"19/05/27","16:30",0.0,27.3,31.0,1004.5,254.7,1.2,2.8,205.4,0.11,8.7,25.0,"16:28:32",1
"19/05/27","16:40",0.0,27.6,30.4,1004.8,265.2,1.2,2.9,210.8,0.09,8.7,24.8,"16:30:24",1
"19/05/27","16:50",0.0,27.2,29.5,1004.5,191.8,1.2,2.8,233.4,0.06,7.9,24.8,"16:43:20",1
"19/05/27","17:00",0.0,27.1,32.3,1004.8,277.7,1.0,2.0,256.0,0.03,9.2,24.8,"16:58:00",1
"19/05/27","17:10",0.0,26.8,34.5,1004.8,277.6,1.8,5.0,227.2,0.03,9.9,24.7,"17:08:08",1
"19/05/27","17:20",0.0,26.6,34.9,1004.5,262.6,2.0,5.1,222.7,0.04,9.9,24.4,"17:17:36",1
"19/05/27","17:30",0.0,26.4,36.7,1004.8,282.9,1.2,2.8,311.1,0.05,10.5,24.2,"17:25:52",1
"19/05/27","17:40",0.0,26.2,37.6,1004.5,284.4,1.2,2.9,336.5,0.03,10.7,24.2,"17:33:52",1
"19/05/27","17:50",0.0,26.1,37.5,1004.3,284.9,1.3,2.8,333.4,0.03,10.5,24.2,"17:41:20",1
"19/05/27","18:00",0.0,26.0,36.5,1004.3,280.9,1.6,3.2,237.3,0.02,10.0,24.0,"17:55:12",1
"19/05/27","18:10",0.0,25.9,37.1,1004.8,275.0,1.2,3.3,309.7,0.01,10.2,23.9,"18:06:08",1
"19/05/27","18:20",0.0,25.7,37.3,1004.5,292.8,1.0,2.5,316.4,0.01,10.1,23.8,"18:19:12",1
"19/05/27","18:30",0.0,25.6,35.7,1004.5,280.7,1.1,2.4,307.3,0.02,9.4,23.8,"18:26:00",1
"19/05/27","18:40",0.0,26.1,30.3,1004.5,221.0,2.5,7.0,221.0,0.02,7.4,23.5,"18:36:40",1
"19/05/27","18:50",0.0,26.1,31.4,1005.0,269.1,1.5,3.6,202.6,0.01,7.9,23.4,"18:40:32",1
"19/05/27","19:00",0.0,25.5,33.5,1004.8,330.5,2.0,3.3,329.3,0.00,8.3,23.4,"18:59:44",1
"19/05/27","19:10",0.0,25.3,33.6,1004.8,313.8,2.0,3.5,331.1,0.00,8.2,23.3,"19:03:44",1
"19/05/27","19:20",0.0,24.9,35.5,1004.8,310.2,0.8,2.4,343.0,0.00,8.7,23.4,"19:16:40",1
"19/05/27","19:30",0.0,24.7,36.1,1005.0,332.8,1.7,4.1,332.1,0.00,8.7,23.1,"19:29:44",1
"19/05/27","19:40",0.0,24.8,34.5,1005.2,327.1,2.5,5.4,340.5,0.00,8.1,23.1,"19:36:08",1
"19/05/27","19:50",0.0,24.5,36.5,1005.0,333.1,2.0,4.0,327.5,0.00,8.7,22.9,"19:41:12",1
"19/05/27","20:00",0.0,24.3,38.0,1005.0,317.7,1.6,3.1,341.8,0.00,9.1,22.8,"19:54:32",1
"19/05/27","20:10",0.0,24.4,39.8,1005.0,316.9,2.0,4.8,340.8,0.00,9.9,22.7,"20:03:52",1
"19/05/27","20:20",0.0,24.4,40.8,1005.0,317.6,2.1,4.3,334.0,0.00,10.3,22.6,"20:14:32",1
"19/05/27","20:30",0.0,24.2,40.9,1005.2,278.7,1.2,2.4,299.4,0.00,10.1,22.7,"20:21:20",1
"19/05/27","20:40",0.0,24.3,40.6,1005.5,266.8,1.7,3.7,309.2,0.00,10.1,22.6,"20:30:48",1
"19/05/27","20:50",0.0,24.3,41.4,1005.0,268.7,1.3,3.4,332.2,0.00,10.4,22.3,"20:43:04",1
"19/05/27","21:00",0.0,24.2,42.2,1005.2,303.2,1.6,2.7,330.8,0.00,10.6,22.3,"20:58:40",1
"19/05/27","21:10",0.0,23.6,44.5,1005.5,266.6,1.0,2.0,325.2,0.00,10.9,22.2,"21:00:56",1
"19/05/27","21:20",0.0,23.8,45.2,1005.5,259.0,1.3,2.8,232.0,0.00,11.3,22.3,"21:16:00",1
"19/05/27","21:30",0.0,23.9,45.3,1005.2,251.2,1.1,3.1,240.1,0.00,11.4,22.2,"21:21:36",1
"19/05/27","21:40",0.0,23.7,46.0,1005.2,315.8,1.5,4.4,352.0,0.00,11.4,22.2,"21:33:44",1
"19/05/27","21:50",0.0,23.2,48.3,1005.5,299.4,1.5,3.1,323.1,0.00,11.7,22.0,"21:44:24",1
"19/05/27","22:00",0.0,23.0,50.8,1005.5,293.0,1.3,3.1,349.0,0.00,12.3,22.1,"21:50:56",1
"19/05/27","22:10",0.0,22.9,52.0,1005.2,330.7,2.0,2.9,335.2,0.00,12.6,21.9,"22:02:48",1
"19/05/27","22:20",0.0,22.6,53.4,1005.5,323.1,0.6,1.6,292.8,0.00,12.7,21.9,"22:10:24",1
"19/05/27","22:30",0.0,22.5,55.5,1005.5,341.2,1.1,2.1,337.9,0.00,13.2,22.0,"22:24:48",1
"19/05/27","22:40",0.0,22.5,56.5,1005.5,342.2,1.2,1.8,349.4,0.00,13.5,21.8,"22:33:52",1
"19/05/27","22:50",0.0,22.1,59.3,1005.5,246.8,1.2,2.7,232.4,0.00,13.8,21.7,"22:41:52",1
"19/05/27","23:00",0.0,22.6,59.5,1005.2,303.6,1.0,2.4,357.0,0.00,14.4,21.8,"22:57:52",1
"19/05/27","23:10",0.0,22.8,59.6,1005.5,242.6,0.6,2.1,161.6,0.00,14.6,21.7,"23:00:02",1
"19/05/27","23:20",0.0,23.0,60.5,1005.5,186.8,1.0,3.4,229.6,0.00,15.0,21.8,"23:12:40",1
"19/05/27","23:30",0.0,22.9,61.6,1004.8,269.2,0.7,1.7,250.0,0.00,15.2,21.5,"23:22:08",1
"19/05/27","23:40",0.0,22.9,63.3,1005.0,217.8,0.8,2.4,186.3,0.00,15.6,21.4,"23:32:56",1
"19/05/27","23:50",0.0,23.0,63.5,1005.0,342.8,1.7,5.6,342.3,0.00,15.7,21.7,"23:46:24",1
"19/05/27","24:00",0.0,22.9,63.7,1004.8,334.9,1.2,2.6,333.7,0.00,15.7,21.6,"23:52:08",1
